Location: Burbank
(38.7788°N, 114.0429°W)
Time: 21:20:43
(UTC+00:00)

S-56A Canister/Altair - Pass Details

Date: 18 May 2026
Orbit: 632 x 2484 km, 38.9° (Epoch: 8 June)

Event Time Altitude Azimuth Distance (km) Brightness Sun altitude
Rises 02:33:21 0° 233° (SW) 3,506 11.3 1.0°
Reaches altitude 10° 02:36:17 10° 226° (SW) 2,360 10.3 0.5°
Maximum altitude 02:41:10 40° 157° (SSE) 992 7.8 -0.4°
Drops below altitude 10° 02:45:20 10° 87° (E) 2,011 9.2 -1.1°
Sets 02:47:39 0° 80° (E) 2,922 10.0 -1.5°
